When you browse on this site, cookies collect data to enhance your experience and personalize the content and advertising you see.
Visit our Privacy Policy to learn more. By continuing to use the site, you agree to this use of cookies and data.
  • In Hungary
  • List of Countries
  • For 7 days
  • Water Temperature
  • Satellite Maps
  • Weather Map
  • News
  • Weather Widgets
  • user-avatar
    Login

    Hourly Weather Cedar Park

    Today, 22 March, Friday

    Time Temperature Precipitation Wind Pressure Humidity
    00:00 +15°C° 0 mm 2 mps 740 mmHg 46%
    01:00 +15°C° 0 mm 2 mps 740 mmHg 49%
    02:00 +13°C° 0 mm 3 mps 740 mmHg 52%
    03:00 +13°C° 0 mm 3 mps 740 mmHg 62%
    04:00 +14°C° 0 mm 2 mps 740 mmHg 72%
    05:00 +13°C° 0 mm 2 mps 740 mmHg 82%
    06:00 +14°C° 0 mm 3 mps 740 mmHg 77%
    07:00 +17°C° 0 mm 3 mps 741 mmHg 71%
    08:00 +19°C° 0 mm 3 mps 741 mmHg 66%
    09:00 +20°C° 0 mm 4 mps 741 mmHg 59%
    10:00 +22°C° 0 mm 4 mps 741 mmHg 51%
    11:00 +25°C° 0 mm 5 mps 741 mmHg 44%
    12:00 +25°C° 0 mm 5 mps 740 mmHg 45%
    13:00 +25°C° 0 mm 5 mps 739 mmHg 46%
    14:00 +25°C° 0 mm 5 mps 738 mmHg 47%
    15:00 +25°C° 0 mm 5 mps 738 mmHg 52%
    16:00 +23°C° 0 mm 4 mps 738 mmHg 58%
    17:00 +22°C° 0 mm 4 mps 737 mmHg 63%
    18:00 +21°C° 0 mm 4 mps 738 mmHg 63%
    19:00 +19°C° 0 mm 5 mps 738 mmHg 62%
    20:00 +17°C° 0 mm 5 mps 738 mmHg 62%
    21:00 +17°C° 0 mm 5 mps 738 mmHg 60%
    22:00 +16°C° 0 mm 5 mps 739 mmHg 59%
    23:00 +16°C° 0 mm 5 mps 739 mmHg 58%

    Tomorrow, 23 March, Saturday

    Time Temperature Precipitation Wind Pressure Humidity
    00:00 +15°C° 0 mm 5 mps 738 mmHg 62%
    01:00 +15°C° 0 mm 5 mps 738 mmHg 66%
    02:00 +15°C° 0 mm 5 mps 737 mmHg 70%
    03:00 +14°C° 0.4 mm 4 mps 737 mmHg 75%
    04:00 +14°C° 0.4 mm 4 mps 738 mmHg 80%
    05:00 +14°C° 0.4 mm 3 mps 738 mmHg 85%
    06:00 +15°C° 0.5 mm 4 mps 738 mmHg 81%
    07:00 +17°C° 0.5 mm 5 mps 739 mmHg 77%
    08:00 +19°C° 0.5 mm 6 mps 739 mmHg 73%
    09:00 +19°C° 0.2 mm 6 mps 739 mmHg 75%
    10:00 +19°C° 0.2 mm 5 mps 739 mmHg 77%
    11:00 +20°C° 0.2 mm 5 mps 739 mmHg 78%
    12:00 +20°C° 0.1 mm 5 mps 738 mmHg 78%
    13:00 +20°C° 0.1 mm 6 mps 738 mmHg 78%
    14:00 +20°C° 0.1 mm 6 mps 737 mmHg 78%
    15:00 +20°C° 0 mm 6 mps 737 mmHg 80%
    16:00 +20°C° 0 mm 6 mps 737 mmHg 81%
    17:00 +19°C° 0 mm 5 mps 737 mmHg 83%
    18:00 +19°C° 0 mm 5 mps 738 mmHg 85%
    19:00 +19°C° 0 mm 5 mps 738 mmHg 86%
    20:00 +19°C° 0 mm 5 mps 738 mmHg 88%
    21:00 +17°C° 0.1 mm 5 mps 738 mmHg 89%
    22:00 +17°C° 0.1 mm 5 mps 738 mmHg 91%
    23:00 +17°C° 0.1 mm 5 mps 738 mmHg 92%

    Day after tomorrow, 24 March, Sunday

    Time Temperature Precipitation Wind Pressure Humidity
    00:00 +17°C° 0.1 mm 5 mps 738 mmHg 92%
    01:00 +17°C° 0.1 mm 5 mps 738 mmHg 93%
    02:00 +17°C° 0.1 mm 5 mps 738 mmHg 93%
    03:00 +17°C° 0.1 mm 5 mps 738 mmHg 93%
    04:00 +17°C° 0.1 mm 5 mps 738 mmHg 93%
    05:00 +17°C° 0.1 mm 5 mps 738 mmHg 93%
    06:00 +19°C° 0.1 mm 5 mps 738 mmHg 91%
    07:00 +19°C° 0.1 mm 5 mps 738 mmHg 90%
    08:00 +19°C° 0.1 mm 5 mps 739 mmHg 88%
    09:00 +20°C° 0 mm 5 mps 739 mmHg 84%
    10:00 +21°C° 0 mm 5 mps 738 mmHg 80%
    11:00 +22°C° 0 mm 5 mps 738 mmHg 75%
    12:00 +23°C° 0 mm 5 mps 738 mmHg 72%
    13:00 +25°C° 0 mm 5 mps 737 mmHg 70%
    14:00 +26°C° 0 mm 5 mps 736 mmHg 67%
    15:00 +25°C° 0 mm 5 mps 736 mmHg 69%
    16:00 +25°C° 0 mm 5 mps 736 mmHg 71%
    17:00 +23°C° 0 mm 4 mps 736 mmHg 73%
    18:00 +22°C° 0 mm 4 mps 736 mmHg 77%
    19:00 +21°C° 0 mm 3 mps 736 mmHg 82%
    20:00 +20°C° 0 mm 3 mps 737 mmHg 86%
    21:00 +20°C° 0 mm 3 mps 737 mmHg 89%
    22:00 +20°C° 0 mm 4 mps 737 mmHg 91%
    23:00 +20°C° 0 mm 4 mps 737 mmHg 94%

    25 March, Monday

    Time Temperature Precipitation Wind Pressure Humidity
    00:00 +19°C° 0 mm 4 mps 737 mmHg 94%
    01:00 +19°C° 0 mm 4 mps 736 mmHg 95%
    02:00 +19°C° 0 mm 5 mps 736 mmHg 95%
    03:00 +19°C° 0 mm 4 mps 737 mmHg 94%
    04:00 +19°C° 0 mm 3 mps 737 mmHg 94%
    05:00 +19°C° 0 mm 2 mps 737 mmHg 94%
    06:00 +20°C° 0 mm 3 mps 738 mmHg 88%
    07:00 +22°C° 0 mm 3 mps 739 mmHg 82%
    08:00 +23°C° 0 mm 4 mps 739 mmHg 77%
    09:00 +25°C° 0 mm 4 mps 739 mmHg 65%
    10:00 +27°C° 0 mm 4 mps 740 mmHg 54%
    11:00 +28°C° 0 mm 5 mps 740 mmHg 42%
    12:00 +29°C° 0 mm 5 mps 739 mmHg 42%
    13:00 +29°C° 0 mm 6 mps 739 mmHg 41%
    14:00 +29°C° 0 mm 6 mps 739 mmHg 40%
    15:00 +28°C° 0 mm 6 mps 739 mmHg 44%
    16:00 +26°C° 0 mm 5 mps 739 mmHg 48%
    17:00 +25°C° 0 mm 5 mps 739 mmHg 51%
    18:00 +22°C° 0 mm 4 mps 740 mmHg 56%
    19:00 +21°C° 0 mm 4 mps 741 mmHg 60%
    20:00 +19°C° 0 mm 3 mps 741 mmHg 64%
    21:00 +18°C° 0 mm 4 mps 742 mmHg 66%
    22:00 +17°C° 0 mm 4 mps 742 mmHg 69%
    23:00 +15°C° 0 mm 4 mps 742 mmHg 71%

    26 March, Tuesday

    Time Temperature Precipitation Wind Pressure Humidity
    00:00 +15°C° 0 mm 4 mps 742 mmHg 72%
    01:00 +14°C° 0 mm 4 mps 742 mmHg 73%
    02:00 +13°C° 0 mm 4 mps 742 mmHg 74%
    03:00 +13°C° 0 mm 4 mps 743 mmHg 75%
    04:00 +12°C° 0 mm 4 mps 743 mmHg 76%
    05:00 +11°C° 0 mm 4 mps 743 mmHg 77%
    06:00 +12°C° 0 mm 4 mps 744 mmHg 72%
    07:00 +14°C° 0 mm 4 mps 744 mmHg 66%
    08:00 +15°C° 0 mm 4 mps 745 mmHg 61%
    09:00 +18°C° 0 mm 4 mps 744 mmHg 54%
    10:00 +19°C° 0 mm 4 mps 744 mmHg 47%
    11:00 +21°C° 0 mm 3 mps 744 mmHg 41%
    12:00 +22°C° 0 mm 3 mps 744 mmHg 39%
    13:00 +23°C° 0 mm 4 mps 743 mmHg 37%
    14:00 +25°C° 0 mm 4 mps 742 mmHg 35%
    15:00 +23°C° 0 mm 4 mps 742 mmHg 39%
    16:00 +22°C° 0 mm 4 mps 742 mmHg 44%
    17:00 +21°C° 0 mm 3 mps 742 mmHg 48%
    18:00 +20°C° 0 mm 3 mps 742 mmHg 53%
    19:00 +18°C° 0 mm 3 mps 743 mmHg 59%
    20:00 +16°C° 0 mm 3 mps 743 mmHg 64%
    21:00 +14°C° 0 mm 3 mps 743 mmHg 67%
    22:00 +15°C° 0 mm 2 mps 743 mmHg 70%
    23:00 +14°C° 0 mm 2 mps 743 mmHg 73%

    27 March, Wednesday

    Time Temperature Precipitation Wind Pressure Humidity
    00:00 +13°C° 0 mm 2 mps 743 mmHg 74%
    01:00 +12°C° 0 mm 3 mps 743 mmHg 75%
    02:00 +12°C° 0 mm 3 mps 742 mmHg 76%
    03:00 +11°C° 0 mm 3 mps 743 mmHg 76%
    04:00 +11°C° 0 mm 3 mps 743 mmHg 76%
    05:00 +10°C° 0 mm 3 mps 743 mmHg 76%
    06:00 +12°C° 0 mm 3 mps 743 mmHg 73%
    07:00 +13°C° 0 mm 4 mps 744 mmHg 69%
    08:00 +15°C° 0 mm 5 mps 744 mmHg 65%
    09:00 +17°C° 0 mm 5 mps 744 mmHg 61%
    10:00 +20°C° 0 mm 5 mps 744 mmHg 56%
    11:00 +22°C° 0 mm 5 mps 743 mmHg 52%
    12:00 +22°C° 0 mm 6 mps 743 mmHg 50%
    13:00 +23°C° 0 mm 6 mps 742 mmHg 48%
    14:00 +23°C° 0 mm 6 mps 741 mmHg 46%
    15:00 +22°C° 0 mm 6 mps 741 mmHg 49%
    16:00 +21°C° 0 mm 5 mps 740 mmHg 52%
    17:00 +21°C° 0 mm 5 mps 740 mmHg 55%
    18:00 +19°C° 0 mm 5 mps 740 mmHg 60%
    19:00 +17°C° 0 mm 5 mps 741 mmHg 66%
    20:00 +16°C° 0 mm 5 mps 741 mmHg 71%
    21:00 +15°C° 0 mm 5 mps 741 mmHg 77%
    22:00 +14°C° 0 mm 5 mps 741 mmHg 83%
    23:00 +14°C° 0 mm 5 mps 741 mmHg 89%
    Show more